EW3411 Weather Reports


time (UTC)temp
C
wind
direction
speed
KPH
gust
KPH
rain 1hr
cm
rain 24hr
cm
rain mn
cm
humidity
%
barometer
mb
20260508091013 5 326 11.3 20.9 0.00 0.00 0.00 85 1004.4
20260508090511 5 330 11.3 20.9 0.00 0.00 0.00 83 1004.5
20260508090028 5 322 11.3 19.3 0.00 0.00 0.00 84 1004.4
20260508085514 5 304 11.3 19.3 0.00 0.00 0.00 83 1004.4
20260508085010 5 340 11.3 17.7 0.00 0.00 0.00 83 1004.5
20260508084528 5 310 8.0 19.3 0.00 0.00 0.00 84 1004.5
20260508084013 5 325 11.3 25.7 0.00 0.00 0.00 83 1004.5
20260508083515 5 340 12.9 25.7 0.00 0.00 0.00 84 1004.4
20260508083111 5 334 14.5 22.5 0.00 0.00 0.00 83 1004.5
20260508082515 5 322 14.5 32.2 0.00 0.00 0.00 84 1004.4
20260508082011 5 322 11.3 22.5 0.00 0.00 0.00 83 1004.3
20260508081530 5 343 11.3 22.5 0.00 0.00 0.00 84 1004.3
20260508081011 5 349 9.7 20.9 0.00 0.00 0.00 83 1004.3
20260508080510 5 313 11.3 25.7 0.00 0.00 0.00 82 1004.4
20260508080029 5 343 14.5 25.7 0.00 0.00 0.00 83 1004.3
20260508075512 5 322 12.9 25.7 0.00 0.00 0.00 84 1004.2
20260508075003 5 300 11.3 25.7 0.00 0.00 0.00 82 1004.2
20260508074534 5 299 9.7 20.9 0.00 0.00 0.00 83 1004.2
20260508074013 5 330 11.3 20.9 0.00 0.00 0.00 82 1004.2
20260508073511 5 326 12.9 25.7 0.00 0.00 0.00 83 1004.2
20260508073033 5 320 14.5 27.4 0.00 0.00 0.00 81 1004.2
20260508072511 5 326 19.3 27.4 0.00 0.00 0.00 83 1004.3
20260508072012 5 343 16.1 25.7 0.00 0.00 0.00 84 1004.2
20260508071532 5 337 14.5 24.1 0.00 0.00 0.00 83 1004.1
20260508071012 5 322 4.8 17.7 0.00 0.00 0.00 83 1004.1
20260508070511 5 305 8.0 17.7 0.00 0.00 0.00 81 1004.1
20260508070031 5 313 11.3 17.7 0.00 0.00 0.00 81 1004.2
20260508065511 5 314 9.7 19.3 0.00 0.08 0.00 81 1004.2
20260508065010 5 318 9.7 25.7 0.00 0.08 0.00 81 1004.4
20260508064544 5 322 12.9 25.7 0.00 0.08 0.00 79 1004.3
20260508064010 5 334 12.9 25.7 0.00 0.08 0.00 80 1004.3
20260508063510 5 338 14.5 27.4 0.00 0.08 0.00 79 1004.4
20260508063038 5 301 16.1 27.4 0.00 0.08 0.00 81 1004.3
20260508062510 5 301 19.3 27.4 0.00 0.08 0.00 81 1004.2
20260508062013 5 301 19.3 27.4 0.00 0.08 0.00 80 1004.3
20260508061537 5 304 16.1 25.7 0.00 0.08 0.00 81 1004.5
20260508061011 5 295 12.9 25.7 0.00 0.08 0.00 81 1004.4
20260508060513 5 319 12.9 29.0 0.00 0.08 0.00 80 1004.5
20260508060034 5 303 11.3 29.0 0.00 0.08 0.00 80 1004.7
20260508055514 5 313 9.7 22.5 0.00 0.28 0.00 79 1004.7
20260508055012 5 323 9.7 19.3 0.00 0.28 0.00 80 1004.6
20260508054530 5 301 8.0 19.3 0.00 0.28 0.00 79 1004.8
20260508054010 5 301 11.3 25.7 0.00 0.28 0.00 80 1004.8
20260508053511 5 311 12.9 25.7 0.00 0.28 0.00 79 1004.9
20260508053035 5 267 8.0 20.9 0.00 0.28 0.00 78 1004.9
20260508052515 5 290 9.7 22.5 0.00 0.28 0.00 77 1004.9
20260508052012 5 312 11.3 17.7 0.00 0.28 0.00 77 1004.9
20260508051534 5 302 9.7 16.1 0.00 0.28 0.00 77 1004.8
20260508051011 5 309 9.7 17.7 0.00 0.28 0.00 76 1004.8
20260508050510 5 282 9.7 17.7 0.00 0.28 0.00 76 1004.8
20260508050044 5 282 9.7 16.1 0.00 0.28 0.00 75 1004.9
20260508045510 5 306 8.0 16.1 0.00 0.61 0.00 75 1005.0
20260508045011 5 311 4.8 16.1 0.00 0.61 0.00 74 1004.9
20260508044536 5 336 4.8 16.1 0.00 0.61 0.00 74 1005.0
20260508044011 5 268 9.7 16.1 0.00 0.61 0.00 73 1005.0
20260508043515 5 318 8.0 14.5 0.00 0.61 0.00 74 1004.9
20260508043036 5 309 4.8 12.9 0.00 0.61 0.00 75 1005.0
20260508042513 5 282 4.8 9.7 0.00 0.61 0.00 76 1005.0
20260508042012 5 307 3.2 8.0 0.00 0.61 0.00 74 1005.1
20260508041535 5 319 1.6 4.8 0.00 0.61 0.00 75 1005.1
20260508041010 5 328 0.0 6.4 0.00 0.61 0.00 78 1005.0
20260508040512 5 328 3.2 8.0 0.00 0.61 0.00 75 1005.0
20260508040037 5 326 3.2 8.0 0.00 0.61 0.00 74 1005.0
20260508035516 5 318 3.2 8.0 0.00 0.94 0.61 75 1005.1
20260508035014 5 300 3.2 6.4 0.00 0.94 0.61 78 1005.0
20260508034536 5 300 0.0 6.4 0.00 0.94 0.61 77 1005.0
20260508034012 5 307 1.6 6.4 0.00 0.94 0.61 76 1005.1
20260508033512 5 299 1.6 6.4 0.00 0.94 0.61 76 1005.1
20260508033034 5 304 0.0 6.4 0.00 0.94 0.61 78 1005.1
20260508032511 5 320 3.2 9.7 0.00 0.94 0.61 77 1005.1
20260508032012 5 314 4.8 9.7 0.00 0.94 0.61 75 1005.0
20260508031532 5 325 6.4 14.5 0.00 0.94 0.61 79 1004.9
20260508031012 5 319 0.0 1.6 0.00 0.94 0.61 80 1005.0
20260508030510 5 319 0.0 0.0 0.00 0.94 0.61 80 1005.0
20260508030035 5 319 0.0 3.2 0.00 0.94 0.61 78 1005.1
20260508025506 5 319 0.0 3.2 0.00 1.22 0.61 79 1004.9
20260508025012 5 319 1.6 4.8 0.00 1.22 0.61 77 1005.0
20260508024548 5 319 0.0 4.8 0.00 1.22 0.61 77 1005.0
20260508024013 6 326 0.0 8.0 0.00 1.22 0.61 75 1005.0
20260508023510 6 326 1.6 9.7 0.00 1.22 0.61 74 1005.0
20260508023034 6 313 3.2 12.9 0.00 1.22 0.61 71 1005.0
20260508022513 6 333 6.4 17.7 0.00 1.22 0.61 69 1005.0
20260508022015 6 324 8.0 17.7 0.00 1.22 0.61 70 1005.0
20260508021535 6 323 8.0 14.5 0.00 1.22 0.61 71 1005.1
20260508021011 6 335 6.4 11.3 0.00 1.22 0.61 70 1005.1
20260508020513 7 329 4.8 9.7 0.00 1.22 0.61 69 1005.1
20260508020036 7 328 6.4 16.1 0.00 1.22 0.61 69 1005.1
20260508015510 6 328 9.7 16.1 0.00 1.35 0.61 69 1005.2
20260508015012 6 341 4.8 8.0 0.00 1.35 0.61 73 1005.3
20260508014540 6 299 0.0 4.8 0.00 1.35 0.61 71 1005.2
20260508014011 6 309 1.6 6.4 0.00 1.35 0.61 73 1005.3
20260508013507 6 249 3.2 6.4 0.00 1.35 0.61 71 1005.2
20260508013039 6 295 1.6 4.8 0.00 1.35 0.61 71 1005.3
20260508012515 6 295 0.0 4.8 0.00 1.35 0.61 72 1005.3
20260508012014 7 222 0.0 8.0 0.00 1.35 0.61 69 1005.5
20260508011551 7 222 0.0 8.0 0.00 1.35 0.61 67 1005.4
20260508011015 7 251 3.2 6.4 0.00 1.35 0.61 68 1005.4
20260508010511 7 255 0.0 6.4 0.00 1.35 0.61 65 1005.2
20260508010048 7 282 3.2 14.5 0.00 1.35 0.61 63 1005.1
20260508005508 8 281 8.0 14.5 0.00 1.42 0.61 64 1005.1
20260508005015 8 305 6.4 20.9 0.00 1.42 0.61 62 1005.1
20260508004551 8 290 12.9 20.9 0.00 1.42 0.61 63 1005.0
20260508004014 8 301 11.3 17.7 0.00 1.42 0.61 62 1005.1
20260508003510 8 328 11.3 19.3 0.00 1.42 0.61 64 1004.9
20260508003039 8 332 11.3 19.3 0.00 1.42 0.61 60 1005.0
20260508002516 8 308 9.7 16.1 0.00 1.42 0.61 64 1004.9
20260508002015 8 303 9.7 16.1 0.00 1.42 0.61 59 1004.9
20260508001541 8 290 8.0 14.5 0.00 1.42 0.61 61 1004.7
20260508001008 8 324 8.0 16.1 0.00 1.42 0.61 59 1004.7
20260508000518 8 326 6.4 16.1 0.00 1.42 0.61 62 1004.6
20260508000037 8 295 6.4 17.7 0.00 1.42 0.61 57 1004.7
20260507235511 8 309 8.0 17.7 0.00 1.50 0.61 57 1004.6
20260507235015 9 318 6.4 17.7 0.00 1.50 0.61 56 1004.6
20260507234533 9 295 9.7 17.7 0.00 1.50 0.61 57 1004.5
20260507234010 9 276 8.0 22.5 0.00 1.50 0.61 59 1004.5
20260507233514 9 307 11.3 22.5 0.00 1.50 0.61 55 1004.5
20260507233035 9 254 9.7 25.7 0.00 1.50 0.61 58 1004.5
20260507232515 10 305 14.5 32.2 0.00 1.50 0.61 54 1004.4
20260507232006 10 295 17.7 27.4 0.00 1.50 0.61 54 1004.3
20260507231529 10 310 17.7 29.0 0.00 1.50 0.61 55 1004.1
20260507231013 10 308 17.7 29.0 0.00 1.50 0.61 53 1004.3
20260507230512 10 281 12.9 29.0 0.00 1.50 0.61 56 1004.3
20260507230040 10 323 17.7 25.7 0.00 1.50 0.61 54 1004.2
20260507225513 10 312 12.9 25.7 0.00 1.80 0.61 55 1004.0
20260507225015 10 311 14.5 33.8 0.00 1.80 0.61 56 1004.1
20260507224542 10 305 17.7 33.8 0.00 1.80 0.61 57 1003.8
20260507224015 10 299 11.3 25.7 0.00 1.80 0.61 58 1003.9
20260507223515 10 328 17.7 29.0 0.00 1.80 0.61 62 1003.8
20260507223035 10 305 17.7 29.0 0.00 1.80 0.61 61 1003.8
20260507222514 10 330 16.1 32.2 0.00 1.80 0.61 62 1003.9
20260507222011 10 326 20.9 33.8 0.00 1.80 0.61 64 1003.8
20260507221537 10 340 20.9 30.6 0.00 1.80 0.61 63 1003.9
20260507221014 10 334 22.5 30.6 0.00 1.80 0.61 65 1003.7
20260507220516 10 336 20.9 30.6 0.00 1.80 0.61 65 1003.6
20260507220039 10 352 16.1 32.2 0.00 1.80 0.61 64 1003.7
20260507215516 10 326 22.5 32.2 0.00 2.01 0.61 65 1003.8
20260507215017 10 327 19.3 30.6 0.00 2.01 0.61 67 1003.7
20260507214534 10 295 20.9 30.6 0.00 2.01 0.61 66 1003.3
20260507214014 11 311 17.7 29.0 0.00 2.01 0.61 66 1003.4
20260507213515 11 320 19.3 29.0 0.00 2.01 0.61 63 1003.5
20260507213038 11 339 17.7 30.6 0.00 2.01 0.61 69 1003.4
20260507212511 11 332 19.3 33.8 0.00 2.01 0.61 69 1003.3
20260507212016 11 323 22.5 33.8 0.00 2.01 0.61 68 1003.2
20260507211528 11 328 22.5 33.8 0.00 2.01 0.61 67 1003.4
20260507211013 11 315 19.3 32.2 0.00 2.01 0.61 67 1003.3
20260507210510 10 334 19.3 25.7 0.00 2.01 0.61 69 1003.4
20260507210036 10 340 14.5 30.6 0.00 2.01 0.61 71 1003.3
20260507205511 11 305 20.9 30.6 0.00 2.44 0.61 71 1003.3
20260507205013 10 339 20.9 29.0 0.00 2.44 0.61 74 1003.2
20260507204545 10 324 17.7 30.6 0.00 2.44 0.61 73 1003.1
20260507204013 10 347 17.7 30.6 0.00 2.44 0.61 74 1003.0
20260507203510 10 347 19.3 30.6 0.00 2.44 0.61 73 1003.0
20260507203039 10 326 17.7 25.7 0.00 2.44 0.61 75 1003.0
20260507202514 10 332 19.3 30.6 0.00 2.44 0.61 75 1003.1
20260507202014 10 339 19.3 33.8 0.00 2.44 0.61 75 1003.1
20260507201539 10 312 20.9 33.8 0.00 2.44 0.61 75 1003.1
20260507201015 10 323 20.9 35.4 0.00 2.44 0.61 75 1003.1
20260507200513 10 334 24.1 37.0 0.00 2.44 0.61 75 1003.1
20260507200042 10 320 25.7 37.0 0.00 2.44 0.61 74 1003.0
20260507195508 10 339 22.5 38.6 0.00 2.84 0.61 76 1003.1
20260507195008 10 335 29.0 41.8 0.00 2.84 0.61 77 1003.1
20260507194540 10 326 30.6 41.8 0.00 2.84 0.61 74 1002.9
20260507194012 11 336 25.7 38.6 0.00 2.84 0.61 66 1002.8
20260507193512 11 329 22.5 38.6 0.00 2.84 0.61 65 1002.7
20260507193039 11 336 22.5 32.2 0.00 2.84 0.61 67 1002.5
20260507192514 11 345 20.9 29.0 0.00 2.84 0.61 65 1002.5
20260507192014 12 336 22.5 29.0 0.00 2.84 0.61 64 1002.4
20260507191530 12 332 20.9 30.6 0.00 2.84 0.61 63 1002.4
20260507191012 12 331 22.5 30.6 0.00 2.84 0.61 62 1002.4
20260507190515 12 341 22.5 30.6 0.00 2.84 0.61 62 1002.5
20260507190040 12 338 16.1 27.4 0.00 2.84 0.61 61 1002.5
20260507185512 12 339 17.7 27.4 0.00 3.15 0.61 60 1002.6
20260507185013 12 334 19.3 27.4 0.00 3.15 0.61 63 1002.6
20260507184542 12 335 17.7 22.5 0.00 3.15 0.61 66 1002.5
20260507184009 12 339 14.5 24.1 0.00 3.15 0.61 69 1002.6
20260507183513 12 339 19.3 24.1 0.00 3.15 0.61 68 1002.6
20260507183042 12 331 16.1 24.1 0.00 3.15 0.61 69 1002.6
20260507182510 12 341 14.5 24.1 0.00 3.15 0.61 65 1002.7
20260507182016 12 347 16.1 24.1 0.00 3.15 0.61 66 1002.7
20260507181539 12 316 16.1 20.9 0.00 3.15 0.61 69 1002.7
20260507181011 12 315 12.9 20.9 0.00 3.15 0.61 66 1002.8
20260507180514 12 322 14.5 27.4 0.00 3.15 0.61 66 1002.7
20260507180044 12 343 14.5 27.4 0.00 3.15 0.61 61 1002.7
20260507175513 12 347 9.7 20.9 0.00 3.33 0.61 64 1002.6
20260507175017 12 335 12.9 22.5 0.00 3.33 0.61 68 1002.6
20260507174538 12 324 16.1 25.7 0.00 3.33 0.61 66 1002.6
20260507174013 12 320 14.5 25.7 0.00 3.33 0.61 64 1002.5
20260507173516 12 345 8.0 22.5 0.00 3.33 0.61 66 1002.5
20260507173038 12 328 12.9 25.7 0.00 3.33 0.61 67 1002.7
20260507172512 12 339 16.1 25.7 0.00 3.33 0.61 66 1002.8
20260507172014 12 328 12.9 19.3 0.00 3.33 0.61 66 1002.9
20260507171538 12 344 12.9 19.3 0.00 3.33 0.61 66 1003.0
20260507171012 12 344 8.0 17.7 0.00 3.33 0.61 63 1003.1
20260507170517 12 318 9.7 17.7 0.00 3.33 0.61 65 1003.0
20260507170040 12 332 11.3 17.7 0.00 3.33 0.61 62 1003.2
20260507165514 11 334 9.7 16.1 0.00 3.35 0.61 66 1003.0
20260507165013 11 340 9.7 16.1 0.00 3.35 0.61 66 1003.2
20260507164539 11 342 9.7 17.7 0.00 3.35 0.61 67 1003.0
20260507164016 11 336 11.3 20.9 0.00 3.35 0.61 66 1003.2
20260507163514 11 330 12.9 20.9 0.00 3.35 0.61 66 1003.1
20260507163040 11 38 6.4 16.1 0.00 3.35 0.61 67 1003.1
20260507162513 11 345 11.3 16.1 0.00 3.35 0.61 68 1003.3
20260507162010 11 349 9.7 17.7 0.00 3.35 0.61 71 1003.4
20260507161540 11 346 11.3 17.7 0.00 3.35 0.61 71 1003.5
20260507161014 11 339 9.7 16.1 0.00 3.35 0.61 72 1003.7
20260507160513 11 339 8.0 17.7 0.00 3.35 0.61 70 1003.9
20260507160051 10 337 11.3 19.3 0.00 3.35 0.61 73 1003.9
20260507155513 10 344 11.3 19.3 0.00 3.35 0.61 73 1003.8
20260507155015 10 341 9.7 16.1 0.00 3.35 0.61 75 1003.9
20260507154542 10 347 9.7 16.1 0.00 3.35 0.61 75 1003.9
20260507154012 10 324 8.0 17.7 0.00 3.35 0.61 76 1004.0
20260507153514 10 341 11.3 14.5 0.00 3.35 0.61 76 1004.0
20260507153045 10 334 6.4 17.7 0.00 3.35 0.61 77 1004.1
20260507152513 10 342 11.3 17.7 0.00 3.35 0.61 76 1004.1
20260507152013 10 322 11.3 17.7 0.00 3.35 0.61 76 1004.4
20260507151533 10 334 9.7 25.7 0.00 3.35 0.61 77 1004.4
20260507151013 9 322 14.5 25.7 0.00 3.35 0.61 76 1004.4
20260507150517 9 303 9.7 19.3 0.00 3.35 0.61 80 1004.4
20260507150041 9 338 12.9 19.3 0.00 3.35 0.61 80 1004.3
20260507145515 9 340 11.3 17.7 0.00 3.35 0.61 79 1004.4
20260507145010 9 311 9.7 22.5 0.00 3.35 0.61 80 1004.6
20260507144540 9 333 6.4 19.3 0.00 3.35 0.61 80 1004.5
20260507144010 9 290 6.4 19.3 0.00 3.35 0.61 80 1004.5
20260507143516 8 353 8.0 19.3 0.00 3.35 0.61 81 1004.5
20260507143041 8 324 9.7 19.3 0.00 3.35 0.61 81 1004.6
20260507142513 8 327 11.3 19.3 0.00 3.35 0.61 81 1004.5
20260507142014 8 348 12.9 20.9 0.00 3.35 0.61 80 1004.6
20260507141553 8 329 14.5 20.9 0.00 3.35 0.61 81 1004.6
20260507141017 8 327 14.5 20.9 0.00 3.35 0.61 81 1004.5
20260507140515 8 336 12.9 19.3 0.00 3.35 0.61 83 1004.5
20260507140104 7 334 9.7 19.3 0.00 3.35 0.61 84 1004.5
20260507135514 7 300 12.9 19.3 0.00 3.35 0.61 83 1004.4
20260507135014 7 316 9.7 19.3 0.00 3.35 0.61 84 1004.5
20260507134541 7 308 11.3 25.7 0.00 3.35 0.61 86 1004.7
20260507134014 7 351 14.5 25.7 0.00 3.35 0.61 85 1004.8
20260507133514 7 317 16.1 22.5 0.00 3.35 0.61 85 1004.8
20260507133038 7 268 14.5 22.5 0.00 3.35 0.61 86 1004.9
20260507132514 7 339 11.3 19.3 0.00 3.35 0.61 87 1004.8
20260507132013 7 307 14.5 19.3 0.00 3.35 0.61 87 1004.6
20260507131540 7 312 12.9 25.7 0.00 3.35 0.61 88 1005.0
20260507131015 7 346 16.1 24.1 0.00 3.35 0.61 87 1005.1
20260507130517 7 318 14.5 24.1 0.00 3.35 0.61 87 1005.3
20260507130046 7 295 9.7 24.1 0.00 3.35 0.61 87 1005.4
20260507125519 7 330 12.9 24.1 0.00 3.35 0.61 88 1005.4
20260507125013 7 320 11.3 22.5 0.00 3.35 0.61 88 1005.4
20260507124546 7 307 12.9 22.5 0.00 3.35 0.61 87 1005.4
20260507124015 7 334 11.3 22.5 0.00 3.35 0.61 88 1005.3
20260507123514 7 322 14.5 22.5 0.00 3.35 0.61 87 1005.4
20260507123052 7 338 9.7 22.5 0.00 3.35 0.61 90 1005.4
20260507122514 6 327 11.3 20.9 0.00 3.35 0.61 88 1005.2
20260507122013 6 324 11.3 24.1 0.00 3.35 0.61 89 1005.2
20260507121543 6 322 12.9 22.5 0.00 3.35 0.61 89 1005.4
20260507121016 6 295 9.7 20.9 0.00 3.35 0.61 89 1005.4
20260507120513 6 324 14.5 20.9 0.00 3.35 0.61 89 1005.2
20260507120032 6 340 9.7 16.1 0.00 3.35 0.61 89 1005.3
20260507115509 6 335 6.4 17.7 0.00 3.35 0.61 91 1005.4
20260507115010 6 335 8.0 20.9 0.00 3.35 0.61 91 1005.4
20260507114533 6 332 11.3 20.9 0.00 3.35 0.61 90 1005.3
20260507114013 6 337 9.7 19.3 0.00 3.35 0.61 90 1005.4
20260507113514 6 301 9.7 19.3 0.00 3.35 0.61 90 1005.3
20260507113030 6 282 9.7 20.9 0.00 3.35 0.61 90 1005.3
20260507112514 6 312 9.7 20.9 0.00 3.35 0.61 90 1005.2
20260507112015 6 312 8.0 17.7 0.00 3.35 0.61 90 1005.1
20260507111523 6 305 9.7 17.7 0.00 3.35 0.61 90 1005.0
20260507111011 6 333 8.0 14.5 0.00 3.35 0.61 91 1005.0
20260507110517 6 295 6.4 16.1 0.00 3.35 0.61 91 1005.0
20260507110032 6 321 9.7 16.1 0.00 3.35 0.61 90 1004.9
20260507105512 6 312 6.4 14.5 0.00 3.35 0.61 91 1005.0
20260507105013 6 341 6.4 17.7 0.00 3.35 0.61 91 1005.0
20260507104536 5 320 6.4 17.7 0.00 3.35 0.61 91 1005.1
20260507104016 5 320 9.7 20.9 0.00 3.35 0.61 92 1005.0
20260507103511 5 318 11.3 20.9 0.00 3.35 0.61 91 1005.0
20260507103031 5 338 9.7 17.7 0.00 3.35 0.61 91 1005.0
20260507102517 5 290 9.7 16.1 0.00 3.35 0.61 91 1005.1
20260507102013 5 303 8.0 16.1 0.00 3.35 0.61 91 1005.2
20260507101539 5 309 6.4 16.1 0.00 3.35 0.61 91 1005.1
20260507101012 5 290 11.3 17.7 0.00 3.35 0.61 91 1005.0
20260507100513 6 282 9.7 17.7 0.00 3.35 0.61 90 1004.9
20260507100034 6 302 6.4 17.7 0.00 3.35 0.61 92 1004.8
20260507095514 6 328 6.4 16.1 0.00 3.38 0.61 92 1004.7
20260507095006 6 316 8.0 16.1 0.00 3.38 0.61 92 1004.5
20260507094533 6 335 8.0 14.5 0.00 3.38 0.61 93 1004.3
20260507094015 5 318 8.0 14.5 0.00 3.38 0.61 94 1004.0
20260507093513 6 305 4.8 9.7 0.00 3.38 0.61 93 1004.1
20260507093039 6 327 6.4 16.1 0.00 3.38 0.61 93 1003.9
20260507092511 6 311 11.3 16.1 0.00 3.38 0.61 93 1004.2
20260507092011 6 308 8.0 14.5 0.00 3.38 0.61 92 1004.1
20260507091519 6 331 3.2 9.7 0.00 3.38 0.61 92 1004.4